Regional Weather Roundup
Issued by NWS Columbia, SC

Home | Current Version | Previous Version | Text Only | Print | Product List | Glossary On
Versions: 1 2 3 4 5 6 7 8 9 10 11 12 13 14 15 16 17 18 19 20 21 22 23 24 25 26 27
000
ASUS42 KCAE 051010
RWRCAE
REGIONAL WEATHER ROUNDUP
NATIONAL WEATHER SERVICE COLUMBIA SC
600 AM EDT THU MAY 05 2016

NOTE: "FAIR" INDICATES FEW OR NO CLOUDS BELOW 12,000 FEET WITH NO
SIGNIFICANT WEATHER AND/OR OBSTRUCTIONS TO VISIBILITY.

NOT ALL STATIONS ARE QUALITY CONTROLLED BY THE NATIONAL
WEATHER SERVICE. USE DATA WITH CAUTION...ESPECIALLY
DEWPOINT OBSERVATIONS.

SCZ001>056-GAZ040-063>065-077-051100-
...UPSTATE SOUTH CAROLINA...

CITY           SKY/WX    TMP DP  RH WIND       PRES   REMARKS
ANDERSON       CLEAR     50  42  74 W12       29.65R
LIBERTY        SUNNY     46  41  82 W5        29.63R
SPARTANBURG    PTCLDY    52  37  58 W3        29.62R
CLEMSON        CLEAR     51  40  65 W8        29.66R
GREENVILLE     PTCLDY    52  40  63 N5        29.64R
GREENWOOD      CLEAR     49  44  83 W5        29.65R
GREER          CLOUDY    53  40  61 NW8       29.62R
ROCK HILL      CLOUDY    54  43  66 NW8       29.60R
CHESTER        PTSUNNY   54  41  62 NW6       29.61R
LAURENS        MOSUNNY   50  45  81 W6        29.63R


...CENTRAL SOUTH CAROLINA...

CITY           SKY/WX    TMP DP  RH WIND       PRES   REMARKS
COLUMBIA APT   CLEAR     56  46  69 W12       29.59R
COLUMBIA OWENS CLEAR     59  46  62 W7        29.60R
MCENTIRE ANGB  PTCLDY    53  48  82 W8        29.58R
ORANGEBURG     CLEAR     56  46  69 W9        29.60R
SUMTER SHAW    CLOUDY    56  47  72 W8        29.55R
NEWBERRY       SUNNY     50  45  81 W3        29.65R
AIKEN          FAIR      50  45  81 W9        29.66R
BARNWELL       FAIR      55  52  88 SW5       29.62S
MANNING        FAIR      54  46  76 W3        29.57S
CAMDEN           N/A    N/A N/A N/A MISG        N/A
LANCASTER      PTSUNNY   52  52 100 W5        29.58R
WINNSBORO      PTSUNNY   52  46  82 NW6       29.59S


...EASTERN AND COASTAL SOUTH CAROLINA...

CITY           SKY/WX    TMP DP  RH WIND       PRES   REMARKS
MYRTLE BEACH   CLEAR     57  45  62 W3        29.56F
N MYRTLE BCH   PTCLDY    57  49  74 W7        29.53S
CONWAY         FAIR      50  50 100 CALM      29.55S
MARION         FAIR      54  50  87 CALM      29.54F
HARTSVILLE     PTSUNNY   54  45  71 NW5       29.54S
FLORENCE       PTCLDY    55  49  80 W5        29.54F
DARLINGTON     CLOUDY    55  52  88 CALM      29.54F
CHARLESTON APT PTCLDY    57  47  69 W8        29.58F
MOUNT PLEASANT FAIR      57  48  72 CALM      29.58S
WALTERBORO     SUNNY     55  50  82 W7        29.62R
BEAUFORT       PTCLDY    57  49  74 W7        29.62R


...EASTERN GEORGIA...

CITY           SKY/WX    TMP DP  RH WIND       PRES   REMARKS
AUGUSTA BUSH F CLEAR     54  47  77 W9        29.64R
AUGUSTA DANIEL CLEAR     56  45  66 W12       29.64S
THOMSON        CLEAR     54  50  87 W7        29.71R
WASHINGTON     FAIR      52  45  76 CALM      29.67R
CLAXTON        FAIR      57  53  86 W8        29.67S
SYLVANIA       SUNNY     55  53  91 NW7       29.65R
STATESBORO     CLEAR     58  54  86 W6        29.66R
SAVANNAH       PTCLDY    55  49  80 W9        29.65R


...SOUTHERN NORTH CAROLINA...

CITY           SKY/WX    TMP DP  RH WIND       PRES   REMARKS
CHARLOTTE      MOCLDY    54  45  71 NW10G17   29.60R
MONROE         CLOUDY    56  45  66 N8        29.57R
ROCKINGHAM     CLOUDY    54  52  93 NW3       29.54S
RUTHERFORDTON  CLOUDY    52  39  61 N8        29.63R
ASHEVILLE      CLEAR     45  37  73 N13G22    29.66R

$$




USA.gov is the U.S. government's official web portal to all federal, state and local government web resources and services.